Regional Weather Roundup
Issued by NWS

Home | Current Version | Previous Version | Graphics & Text | Print | Product List | Glossary On
Versions: 1 2 3 4 5 6 7 8 9 10 11 12 13 14 15 16 17 18 19 20 21 22 23 24 25 26 27 28 29 30 31 32 33 34 35 36 37 38 39 40 41 42 43 44 45 46 47 48 49 50
000
ASUS43 KFSD 231002
RWRSD

WEATHER ROUNDUP FOR SOUTH DAKOTA
NATIONAL WEATHER SERVICE SIOUX FALLS SD
500 AM CDT SAT JUL 23 2016

NOTE: "FAIR" INDICATES FEW OR NO CLOUDS BELOW 12,000 FEET WITH NO
SIGNIFICANT WEATHER AND/OR OBSTRUCTIONS TO VISIBILITY.


SDZ001>005-009-010-012>017-231100-
NORTHWEST AND NORTH CENTRAL SOUTH DAKOTA

CITY           SKY/WX    TMP DP  RH WIND       PRES   REMARKS
BUFFALO          N/A     66  60  81 SE13      29.77F
FAITH            N/A     68  60  75 SE23G31   29.79F
MOBRIDGE       LGT RAIN  70  63  78 SE17      29.78F
$$

SDZ012>016-024>037-041>051-057-063-072>074-231100-
SOUTHWEST AND SOUTH CENTRAL SOUTH DAKOTA

CITY           SKY/WX    TMP DP  RH WIND       PRES   REMARKS
RAPID CTY ARPT CLOUDY    67  56  67 S8        29.88F
PIERRE         CLOUDY    77  71  82 E7        29.82F
CUSTER         CLEAR     63  51  65 W3        30.03F
ELLSWORTH AFB  CLOUDY    71  56  58 SW8       29.86F
PHILIP         CLOUDY    75  73  93 NE7       29.84S
PINE RIDGE     LGT RAIN  72  62  71 SW12      29.90F
WINNER         FAIR      78  70  76 SE8       29.87F
$$

SDZ004>011-016>023-039-040-231100-
NORTHEAST SOUTH DAKOTA

CITY           SKY/WX    TMP DP  RH WIND       PRES   REMARKS
ABERDEEN       CLOUDY    73  68  84 NE8       29.84F
WATERTOWN      MOCLDY    76  70  82 E7        29.90F
BROOKINGS      CLOUDY    78  76  93 E9        29.88F
SISSETON         N/A     71  69  93 S8        29.89F
$$

SDZ017-020-022-023-036>040-048>070-231100-
SOUTHEAST SOUTH DAKOTA

CITY           SKY/WX    TMP DP  RH WIND       PRES   REMARKS
SIOUX FALLS    CLOUDY    80  77  90 E8        29.86F
HURON          CLOUDY    77  74  90 E8        29.80F
CHAMBERLAIN    CLOUDY    73  69  89 SE12G18   29.83F
MITCHELL       CLOUDY    80  78  94 S21G30    29.83F THUNDER
YANKTON        CLOUDY    79  70  73 SW7       29.85F
$$

ABBREVIATIONS USED IN REMARKS
   TC - TEMPERATURE IN CELSIUS
  WCI - WIND CHILL INDEX
   HX - HEAT INDEX
  VSB - VISIBILITY




USA.gov is the U.S. government's official web portal to all federal, state and local government web resources and services.